| time (UTC) | temp C | wind direction | speed KPH | gust KPH | rain 1hr cm | rain 24hr cm | rain mn cm | humidity % | barometer mb |
| 20260906204556 | 31 | 175 | 24.1 | 0.0 | 0.00 | 0.00 | 0.00 | 44 | 1004.5 |
| 20260906203043 | 31 | 187 | 24.1 | 0.0 | 0.00 | 0.00 | 0.00 | 46 | 1004.7 |
| 20260906201539 | 31 | 175 | 25.7 | 0.0 | 0.00 | 0.00 | 0.00 | 43 | 1004.9 |
| 20260906200036 | 31 | 153 | 22.5 | 0.0 | 0.00 | 0.00 | 0.00 | 43 | 1004.9 |
| 20260906194531 | 31 | 178 | 24.1 | 0.0 | 0.00 | 0.00 | 0.00 | 44 | 1005.1 |
| 20260906193026 | 31 | 153 | 27.4 | 0.0 | 0.00 | 0.00 | 0.00 | 45 | 1005.2 |
| 20260906191522 | 30 | 175 | 24.1 | 0.0 | 0.00 | 0.00 | 0.00 | 46 | 1005.2 |
| 20260906190018 | 30 | 173 | 24.1 | 0.0 | 0.00 | 0.00 | 0.00 | 48 | 1005.5 |
| 20260906184514 | 30 | 163 | 19.3 | 0.0 | 0.00 | 0.00 | 0.00 | 50 | 1005.6 |
| 20260906183016 | 30 | 360 | 20.9 | 0.0 | 0.00 | 0.00 | 0.00 | 50 | 1006.2 |
| 20260906181505 | 29 | 145 | 19.3 | 0.0 | 0.00 | 0.00 | 0.00 | 53 | 1006.4 |
| 20260906180002 | 28 | 202 | 17.7 | 0.0 | 0.00 | 0.00 | 0.00 | 53 | 1006.8 |
| 20260906174600 | 28 | 177 | 20.9 | 0.0 | 0.00 | 0.00 | 0.00 | 54 | 1006.7 |
| 20260906173108 | 28 | 158 | 19.3 | 0.0 | 0.00 | 0.00 | 0.00 | 57 | 1007.0 |
| 20260906171558 | 27 | 146 | 20.9 | 0.0 | 0.00 | 0.00 | 0.00 | 58 | 1007.2 |
| 20260906170115 | 26 | 148 | 19.3 | 0.0 | 0.00 | 0.00 | 0.00 | 63 | 1007.6 |
| 20260906164547 | 25 | 186 | 17.7 | 0.0 | 0.00 | 0.00 | 0.00 | 67 | 1007.6 |
| 20260906163046 | 24 | 104 | 22.5 | 0.0 | 0.00 | 0.00 | 0.00 | 73 | 1007.6 |
| 20260906161543 | 23 | 123 | 25.7 | 0.0 | 0.00 | 0.00 | 0.00 | 75 | 1007.6 |
| 20260906160042 | 23 | 111 | 22.5 | 0.0 | 0.00 | 0.00 | 0.00 | 78 | 1007.9 |
| 20260906154545 | 22 | 107 | 25.7 | 0.0 | 0.00 | 0.00 | 0.00 | 79 | 1008.0 |
| 20260906153042 | 22 | 104 | 25.7 | 0.0 | 0.00 | 0.00 | 0.00 | 81 | 1008.0 |
| 20260906151642 | 22 | 116 | 25.7 | 0.0 | 0.00 | 0.00 | 0.00 | 78 | 1008.1 |
| 20260906144542 | 22 | 110 | 24.1 | 0.0 | 0.00 | 0.00 | 0.00 | 85 | 1008.0 |
| 20260906143043 | 21 | 124 | 20.9 | 0.0 | 0.00 | 0.00 | 0.00 | 91 | 1007.8 |
| 20260906141538 | 20 | 112 | 17.7 | 0.0 | 0.00 | 0.00 | 0.00 | 93 | 1007.6 |
| 20260906140046 | 19 | 103 | 14.5 | 0.0 | 0.00 | 0.00 | 0.00 | 93 | 1007.6 |
| 20260906134547 | 19 | 107 | 12.9 | 0.0 | 0.00 | 0.00 | 0.00 | 93 | 1007.7 |
| 20260906133039 | 18 | 92 | 16.1 | 0.0 | 0.00 | 0.00 | 0.00 | 94 | 1007.5 |
| 20260906131535 | 18 | 98 | 17.7 | 0.0 | 0.00 | 0.00 | 0.00 | 93 | 1007.3 |
| 20260906130033 | 18 | 94 | 14.5 | 0.0 | 0.00 | 0.00 | 0.00 | 93 | 1007.3 |
| 20260906124541 | 18 | 95 | 8.0 | 0.0 | 0.00 | 0.00 | 0.00 | 92 | 1007.7 |
| 20260906123104 | 18 | 100 | 8.0 | 0.0 | 0.00 | 0.00 | 0.00 | 92 | 1007.7 |
| 20260906121531 | 18 | 63 | 4.8 | 0.0 | 0.00 | 0.00 | 0.00 | 91 | 1007.9 |
| 20260906120030 | 18 | 72 | 6.4 | 0.0 | 0.00 | 0.00 | 0.00 | 91 | 1007.9 |
| 20260906114528 | 17 | 75 | 6.4 | 0.0 | 0.00 | 0.00 | 0.00 | 91 | 1007.7 |
| 20260906113028 | 17 | 75 | 8.0 | 0.0 | 0.00 | 0.00 | 0.00 | 91 | 1007.5 |
| 20260906111531 | 17 | 85 | 6.4 | 0.0 | 0.00 | 0.00 | 0.00 | 90 | 1007.5 |
| 20260906110027 | 17 | 75 | 11.3 | 0.0 | 0.00 | 0.00 | 0.00 | 90 | 1006.9 |
| 20260906104530 | 17 | 61 | 8.0 | 0.0 | 0.00 | 0.00 | 0.00 | 90 | 1007.1 |
| 20260906103025 | 18 | 33 | 6.4 | 0.0 | 0.00 | 0.00 | 0.00 | 91 | 1007.3 |
| 20260906101524 | 18 | 59 | 12.9 | 0.0 | 0.00 | 0.00 | 0.00 | 90 | 1007.3 |
| 20260906100026 | 18 | 57 | 8.0 | 0.0 | 0.00 | 0.00 | 0.00 | 91 | 1007.6 |
| 20260906094521 | 18 | 42 | 14.5 | 0.0 | 0.00 | 0.00 | 0.00 | 90 | 1007.4 |
| 20260906093022 | 18 | 58 | 12.9 | 0.0 | 0.00 | 0.00 | 0.00 | 91 | 1007.3 |
| 20260906091518 | 18 | 34 | 11.3 | 0.0 | 0.00 | 0.00 | 0.00 | 91 | 1007.4 |
| 20260906090016 | 18 | 17 | 12.9 | 0.0 | 0.00 | 0.00 | 0.00 | 90 | 1006.9 |
| 20260906084514 | 18 | 51 | 12.9 | 0.0 | 0.00 | 0.00 | 0.00 | 89 | 1007.1 |
| 20260906083014 | 18 | 30 | 14.5 | 0.0 | 0.00 | 0.00 | 0.00 | 88 | 1007.2 |
| 20260906081511 | 19 | 44 | 12.9 | 0.0 | 0.00 | 0.00 | 0.00 | 86 | 1007.0 |
| 20260906080021 | 20 | 32 | 17.7 | 0.0 | 0.00 | 0.00 | 0.00 | 82 | 1007.4 |
| 20260906073058 | 24 | 314 | 8.0 | 0.0 | 0.00 | 0.00 | 0.00 | 65 | 1006.8 |
| 20260906071557 | 23 | 16 | 14.5 | 0.0 | 0.00 | 0.00 | 0.00 | 69 | 1006.9 |
| 20260906070053 | 23 | 171 | 1.6 | 0.0 | 0.00 | 0.00 | 0.00 | 69 | 1005.8 |
| 20260906064551 | 23 | 360 | 4.8 | 0.0 | 0.00 | 0.00 | 0.00 | 68 | 1005.5 |
| 20260906063050 | 23 | 163 | 6.4 | 0.0 | 0.00 | 0.00 | 0.00 | 68 | 1005.2 |
| 20260906061551 | 23 | 142 | 6.4 | 0.0 | 0.00 | 0.00 | 0.00 | 68 | 1005.4 |
| 20260906060046 | 23 | 140 | 4.8 | 0.0 | 0.00 | 0.00 | 0.00 | 67 | 1005.2 |
| 20260906054545 | 23 | 142 | 4.8 | 0.0 | 0.00 | 0.00 | 0.00 | 65 | 1005.2 |
| 20260906053058 | 23 | 149 | 1.6 | 0.0 | 0.00 | 0.00 | 0.00 | 65 | 1005.0 |
| 20260906051542 | 24 | 150 | 1.6 | 0.0 | 0.00 | 0.00 | 0.00 | 64 | 1005.2 |
| 20260906050049 | 25 | 163 | 4.8 | 0.0 | 0.00 | 0.00 | 0.00 | 63 | 1005.2 |
| 20260906044539 | 25 | 149 | 8.0 | 0.0 | 0.00 | 0.00 | 0.00 | 62 | 1005.2 |
| 20260906043038 | 25 | 141 | 9.7 | 0.0 | 0.00 | 0.00 | 0.00 | 62 | 1004.9 |
| 20260906041538 | 25 | 142 | 12.9 | 0.0 | 0.00 | 0.00 | 0.00 | 61 | 1004.8 |
| 20260906040039 | 25 | 123 | 17.7 | 0.0 | 0.00 | 0.00 | 0.00 | 59 | 1005.0 |
| 20260906034537 | 26 | 122 | 16.1 | 0.0 | 0.00 | 0.00 | 0.00 | 58 | 1005.0 |
| 20260906033047 | 26 | 123 | 17.7 | 0.0 | 0.00 | 0.00 | 0.00 | 58 | 1004.9 |
| 20260906031537 | 26 | 109 | 19.3 | 0.0 | 0.00 | 0.00 | 0.00 | 57 | 1004.8 |
| 20260906030039 | 27 | 124 | 16.1 | 0.0 | 0.00 | 0.00 | 0.00 | 54 | 1004.9 |
| 20260906024544 | 28 | 112 | 19.3 | 0.0 | 0.00 | 0.00 | 0.00 | 52 | 1004.8 |
| 20260906023047 | 28 | 98 | 20.9 | 0.0 | 0.00 | 0.00 | 0.00 | 50 | 1004.6 |
| 20260906021636 | 28 | 114 | 16.1 | 0.0 | 0.00 | 0.00 | 0.00 | 48 | 1004.4 |
| 20260906020037 | 28 | 120 | 12.9 | 0.0 | 0.00 | 0.00 | 0.00 | 47 | 1004.0 |
| 20260906014533 | 28 | 123 | 12.9 | 0.0 | 0.00 | 0.00 | 0.00 | 46 | 1003.8 |
| 20260906011535 | 30 | 134 | 9.7 | 0.0 | 0.00 | 0.00 | 0.00 | 41 | 1004.0 |
| 20260906010034 | 31 | 132 | 9.7 | 0.0 | 0.00 | 0.00 | 0.00 | 39 | 1004.1 |
| 20260906004532 | 32 | 155 | 8.0 | 0.0 | 0.00 | 0.00 | 0.00 | 37 | 1004.1 |
| 20260906003031 | 32 | 144 | 11.3 | 0.0 | 0.00 | 0.00 | 0.00 | 36 | 1003.7 |
| 20260906001531 | 32 | 127 | 25.7 | 0.0 | 0.00 | 0.00 | 0.00 | 36 | 1003.3 |
| 20260906000048 | 32 | 113 | 19.3 | 0.0 | 0.00 | 0.00 | 0.00 | 36 | 1003.0 |
| 20260905234530 | 32 | 123 | 12.9 | 0.0 | 0.00 | 0.00 | 0.00 | 36 | 1003.1 |
| 20260905233029 | 32 | 134 | 19.3 | 0.0 | 0.00 | 0.00 | 0.00 | 36 | 1002.8 |
| 20260905231529 | 32 | 114 | 20.9 | 0.0 | 0.00 | 0.00 | 0.00 | 37 | 1002.7 |
| 20260905230028 | 32 | 123 | 22.5 | 0.0 | 0.00 | 0.00 | 0.00 | 36 | 1002.7 |
| 20260905224531 | 32 | 120 | 24.1 | 0.0 | 0.00 | 0.00 | 0.00 | 35 | 1002.5 |
| 20260905223027 | 32 | 117 | 14.5 | 0.0 | 0.00 | 0.00 | 0.00 | 34 | 1002.5 |
| 20260905221527 | 32 | 151 | 14.5 | 0.0 | 0.00 | 0.00 | 0.00 | 35 | 1002.6 |
| 20260905220026 | 33 | 155 | 16.1 | 0.0 | 0.00 | 0.00 | 0.00 | 35 | 1002.5 |
| 20260905214525 | 33 | 109 | 20.9 | 0.0 | 0.00 | 0.00 | 0.00 | 35 | 1002.6 |
| 20260905213022 | 32 | 121 | 16.1 | 0.0 | 0.00 | 0.00 | 0.00 | 36 | 1002.9 |
| 20260905211521 | 33 | 144 | 24.1 | 0.0 | 0.00 | 0.00 | 0.00 | 35 | 1003.3 |
| 20260905210020 | 33 | 163 | 17.7 | 0.0 | 0.00 | 0.00 | 0.00 | 37 | 1003.4 |